This demonstration page uses our WeatherBlox Daily Observations layout. Learn more.

Hourly Observations for October 11, 2018

Temp ( °F °C ) Dew Point ( °F °C ) Humidity (%) Winds ( mph kmh ) Pressure ( in mb ) Visibility ( mi km ) Precip ( " mm )
12:15 am 00:15 Partly Cloudy 73 23 72 22 94 94 S 12 19 29.88 1012 10 16.09344 0 0
12:35 am 00:35 Clear 73 23 72 22 94 94 S 9 15 29.88 1012 10 16.09344 0 0
12:55 am 00:55 Clear 73 23 72 22 94 94 S 9 15 29.88 1012 10 16.09344 0 0
1:15 am 01:15 Partly Cloudy 73 23 72 22 94 94 S 12 19 29.88 1012 10 16.09344 0 0
1:35 am 01:35 Partly Cloudy 73 23 72 22 94 94 S 10 17 29.88 1012 10 16.09344 0 0
1:55 am 01:55 Partly Cloudy with Light Rain 72 22 72 22 100 100 S 7 11 29.85 1011 10 16.09344 0 0
2:15 am 02:15 Clear 72 22 72 22 100 100 S 8 13 29.85 1011 10 16.09344 0 0
2:35 am 02:35 Clear 72 22 72 22 100 100 S 6 9 29.85 1011 10 16.09344 0 0
2:55 am 02:55 Partly Cloudy 72 22 72 22 100 100 S 6 9 29.83 1010 10 16.09344 0 0
3:15 am 03:15 Mostly Cloudy 72 22 72 22 100 100 S 7 11 29.83 1010 10 16.09344 0 0
3:35 am 03:35 Cloudy 72 22 72 22 100 100 S 8 13 29.8 1009 10 16.09344 0 0
3:55 am 03:55 Cloudy with Rain 72 22 72 22 100 100 S 8 13 29.8 1009 7 11.265408 0 0
4:15 am 04:15 Cloudy with Light Rain 72 22 72 22 100 100 SSE 7 11 29.8 1009 7 11.265408 0 0
4:35 am 04:35 Cloudy with Drizzle 70 21 70 21 100 100 SSE 7 11 29.8 1009 3 4.828032 0.01 0.254
4:55 am 04:55 Cloudy with Light Rain 70 21 70 21 100 100 S 13 20 29.8 1009 5 8.04672 0.01 0.254
5:15 am 05:15 Cloudy with Mist and Fog 70 21 70 21 100 100 S 12 19 29.77 1008 5 8.04672 0 0
5:35 am 05:35 Cloudy 70 21 70 21 100 100 S 12 19 29.77 1008 10 16.09344 0.01 0.254
5:55 am 05:55 Cloudy with Light Rain 70 21 70 21 100 100 S 9 15 29.77 1008 7 11.265408 0.01 0.254
6:15 am 06:15 Cloudy with Light Rain 70 21 70 21 100 100 S 9 15 29.77 1008 7 11.265408 0.05 1.27
6:35 am 06:35 Cloudy with Rain 70 21 70 21 100 100 S 8 13 29.77 1008 5 8.04672 0.05 1.27
6:55 am 06:55 Cloudy with Mist and Fog 70 21 70 21 100 100 SSE 12 19 29.74 1007 4 6.437376 0.1 2.54
7:15 am 07:15 Cloudy with Mist and Fog 70 21 70 21 100 100 S 12 19 29.74 1007 4 6.437376 0 0
7:35 am 07:35 Cloudy with Mist and Fog 70 21 70 21 100 100 S 8 13 29.74 1007 5 8.04672 0 0
7:55 am 07:55 Cloudy with Light Rain 70 21 70 21 100 100 S 8 13 29.74 1007 2.5 4.02336 0 0
8:15 am 08:15 Cloudy with Mist and Fog 68 20 68 20 100 100 S 9 15 29.74 1007 2.5 4.02336 0 0
8:35 am 08:35 Cloudy with Mist and Fog 68 20 68 20 100 100 S 7 11 29.74 1007 4 6.437376 0 0
8:55 am 08:55 Cloudy with Mist and Fog 70 21 70 21 100 100 S 8 13 29.74 1007 5 8.04672 0 0
9:15 am 09:15 Cloudy 70 21 70 21 100 100 S 7 11 29.74 1007 10 16.09344 0 0
9:35 am 09:35 Cloudy 70 21 70 21 100 100 S 8 13 29.74 1007 10 16.09344 0 0
9:55 am 09:55 Cloudy 70 21 70 21 100 100 SW 5 7 29.74 1007 10 16.09344 0 0
10:15 am 10:15 Cloudy 70 21 70 21 100 100 S 7 11 29.74 1007 10 16.09344 0 0
10:35 am 10:35 Cloudy 70 21 70 21 100 100 SSW 7 11 29.74 1007 10 16.09344 0 0
10:55 am 10:55 Cloudy 72 22 72 22 100 100 SSW 9 15 29.74 1007 10 16.09344 0 0
11:15 am 11:15 Cloudy 72 22 72 22 100 100 SSW 6 9 29.71 1006 10 16.09344 0 0
11:35 am 11:35 Cloudy 73 23 72 22 94 94 S 7 11 29.71 1006 10 16.09344 0 0
11:55 am 11:55 Cloudy 73 23 72 22 94 94 S 6 9 29.71 1006 10 16.09344 0 0
12:15 pm 12:15 Cloudy with Light Rain 73 23 72 22 94 94 S 6 9 29.71 1006 10 16.09344 0 0
12:35 pm 12:35 Cloudy with Light Rain 73 23 72 22 94 94 S 5 7 29.71 1006 10 16.09344 0 0
12:55 pm 12:55 Cloudy with Light Drizzle 73 23 73 23 100 100 S 7 11 29.71 1006 10 16.09344 0 0
1:15 pm 13:15 Cloudy 75 24 72 22 89 89 S 7 11 29.68 1005 10 16.09344 0 0
1:35 pm 13:35 Cloudy 77 25 72 22 83 83 S 7 11 29.68 1005 10 16.09344 0 0
1:55 pm 13:55 Cloudy 77 25 72 22 83 83 SSW 6 9 29.68 1005 10 16.09344 0 0
2:15 pm 14:15 Cloudy 77 25 72 22 83 83 S 6 9 29.68 1005 10 16.09344 0 0
2:35 pm 14:35 Cloudy with Rain 75 24 73 23 94 94 SSE 5 7 29.65 1004 10 16.09344 0 0
2:55 pm 14:55 Cloudy with Heavy Rain 73 23 73 23 100 100 WSW 3 6 29.65 1004 3 4.828032 0.09 2.286
3:15 pm 15:15 Cloudy with Light Rain 72 22 72 22 100 100 W 3 6 29.65 1004 7 11.265408 0.02 0.508
3:35 pm 15:35 Cloudy with Rain 72 22 72 22 100 100 W 10 17 29.65 1004 7 11.265408 0.02 0.508
3:55 pm 15:55 Cloudy with Nearby Thunderstorms 70 21 70 21 100 100 NW 12 19 29.65 1004 7 11.265408 0.03 0.762
4:15 pm 16:15 Cloudy with Light Rain 68 20 68 20 100 100 NNW 7 11 29.65 1004 10 16.09344 0 0
4:35 pm 16:35 Cloudy 68 20 68 20 100 100 WSW 9 15 29.68 1005 2.5 4.02336 0.12 3.048
4:55 pm 16:55 Cloudy 66 19 66 19 100 100 NNW 14 22 29.62 1003 2.5 4.02336 0.3 7.62
5:15 pm 17:15 Mostly Cloudy with Rain 68 20 68 20 100 100 N 6 9 29.62 1003 7 11.265408 0.02 0.508
5:35 pm 17:35 Mostly Cloudy with Heavy Rain 68 20 68 20 100 100 N 5 7 29.62 1003 5 8.04672 0.08 2.032
5:55 pm 17:55 Mostly Cloudy with Rain 66 19 66 19 100 100 N 8 13 29.59 1002 10 16.09344 0.11 2.794
6:15 pm 18:15 Mostly Cloudy with Light Rain 66 19 66 19 100 100 NNW 8 13 29.59 1002 10 16.09344 0.01 0.254
6:35 pm 18:35 Cloudy with Light Rain 66 19 66 19 100 100 N 7 11 29.59 1002 10 16.09344 0.01 0.254
6:55 pm 18:55 Mostly Cloudy with Rain 66 19 66 19 100 100 NE 3 6 29.59 1002 7 11.265408 0.04 1.016
7:15 pm 19:15 Partly Cloudy with Rain 66 19 66 19 100 100 NNW 7 11 29.59 1002 10 16.09344 0.01 0.254
7:35 pm 19:35 Clear with Light Rain 64 18 64 18 100 100 N 6 9 29.59 1002 10 16.09344 0.02 0.508
7:55 pm 19:55 Clear with Rain 64 18 64 18 100 100 NNE 5 7 29.59 1002 10 16.09344 0.03 0.762
8:15 pm 20:15 Clear with Rain 64 18 64 18 100 100 NE 5 7 29.62 1003 10 16.09344 0.01 0.254
8:35 pm 20:35 Partly Cloudy with Rain 64 18 64 18 100 100 NNE 5 7 29.62 1003 7 11.265408 0.05 1.27
8:55 pm 20:55 Partly Cloudy with Rain 64 18 64 18 100 100 NNE 7 11 29.59 1002 7 11.265408 0.08 2.032
9:15 pm 21:15 Mostly Cloudy with Rain 64 18 64 18 100 100 NE 8 13 29.59 1002 7 11.265408 0.03 0.762
9:35 pm 21:35 Cloudy with Rain 64 18 64 18 100 100 NNE 8 13 29.59 1002 10 16.09344 0.05 1.27
9:55 pm 21:55 Cloudy with Light Rain 64 18 64 18 100 100 NE 6 9 29.59 1002 10 16.09344 0.06 1.524
10:15 pm 22:15 Cloudy 64 18 64 18 100 100 N 9 15 29.59 1002 10 16.09344 0 0
10:35 pm 22:35 Cloudy 64 18 64 18 100 100 N 10 17 29.59 1002 10 16.09344 0 0
10:55 pm 22:55 Cloudy 64 18 64 18 100 100 N 14 22 29.59 1002 10 16.09344 0 0
11:15 pm 23:15 Cloudy 64 18 61 16 88 88 N 17 28 29.56 1001 10 16.09344 0 0
11:35 pm 23:35 Cloudy 64 18 61 16 88 88 NNW 16 26 29.59 1002 10 16.09344 0 0
11:55 pm 23:55 Partly Cloudy 64 18 59 15 83 83 NNW 23 37 29.59 1002 10 16.09344 0 0

Powered by AerisWeather